Погода в Умаге

Хорватия     45°25′52″N   13°31′26″E
темп.,
°C
ветер,
м/с
пор.,
м/с
влажн.,
%
обл.,
%
осадки,
мм/ч
давл.,
гПа
погр.,
м
27 октября, ср
ср2723:00+13св4555100 0.0 1024241
02:00+13св6954100 0.0 1024320
05:00+13всв7125719 0.0 1024350
08:00+13св712595 0.0 1025416
11:00+15св1014575 0.0 1026671
14:00+17св912554 0.0 1025899
17:00+17св811570 0.0 1023696
20:00+15всв810610 0.0 1024521
28 октября, чт
чт2823:00+14всв58660 0.0 1024351
02:00+12всв45715 0.0 1024195
05:00+12всв447019 0.0 1023188
08:00+11всв34725 0.0 1023192
11:00+13св23600 0.0 1023256
14:00+16ссв33505 0.0 1021361
17:00+16ссз22565 0.0 1020105
20:00+15всв23605 0.0 1021111
29 октября, пт
пт2923:00+14в22644 0.0 1021115
02:00+13в336246 0.0 1020135
05:00+12всв225816 0.0 1020138
08:00+12в22585 0.0 1019141
11:00+14всв11495 0.0 1020222
14:00+14сз115280 0.0 1019217
17:00+14зюз225897 0.0 1018117
20:00+14юв116010 0.0 101983
30 октября, сб
сб3023:00+14вюв2159100 0.0 102096
02:00+14вюв125866 0.0 1020107
05:00+14вюв2264100 0.0 102098
08:00+13всв1169100 0.0 1020119
11:00+15в337021 0.0 1021228
14:00+15с3272100 0.0 1021191
17:00+16в2274100 0.0 1021148
20:00+16ююв1178100 0.0 102177
31 октября, вс
вс3123:00+16юв1179100 0.0 1021113
02:00+15юв1179100 0.0 1020136
04:00+15юв2382100 0.1 1019238
07:00+15ююв4587100 0.3 1018279
10:00+16ююз4689100 0.5 1018451
13:00+15юз4590100 1.4 1017386
16:00+15ю7989100 3.2 1016618
19:00+15ююз8991100 5.0 1015646